Regional Weather Roundup
Issued by NWS

Home | Current Version | Previous Version | Text Only | Print | Product List | Glossary Off
Versions: 1 2 3 4 5 6 7 8 9 10 11 12 13 14 15 16 17 18 19 20 21 22 23 24 25 26 27 28 29 30 31 32 33 34 35 36 37 38 39 40 41 42 43 44 45 46 47 48 49 50

000
ASUS43 KOAX 301002
RWRNE

WEATHER ROUNDUP FOR NEBRASKA
NATIONAL WEATHER SERVICE OMAHA NE
500 AM CDT SUN AUG 30 2015

NOTES: SATELLITE DATA IS BEING USED TO AUGMENT CLOUD COVER ABOVE
       12000 FEET.
       "FAIR" INDICATES FEW OR NO CLOUDS BELOW 12,000 FEET WITH NO
       SIGNIFICANT WEATHER AND/OR OBSTRUCTIONS TO VISIBILITY.

  * THESE STATIONS DO NOT REPORT WEATHER SUCH AS RAIN...SNOW OR FOG.

NEZ001>004-019>022-054>056-301100-
NEBRASKA PANHANDLE

CITY           SKY/WX    TMP DP  RH WIND       PRES   REMARKS
SCOTTSBLUFF    PTCLDY    70  41  34 S9        29.99F
ALLIANCE       PTCLDY    59  43  55 SE8       30.00F
CHADRON        PTCLDY    70  42  36 SW10G21   29.91S
KIMBALL        PTCLDY    56  42  58 S7        30.05F
SIDNEY         CLEAR     66  44  45 S13       30.06S
$$

NEZ057>060-069>072-079>082-301100-
SOUTHWEST NEBRASKA

CITY           SKY/WX    TMP DP  RH WIND       PRES   REMARKS
NORTH PLATTE   CLEAR     63  52  67 S7        30.03S
IMPERIAL       CLEAR     59  47  64 S5        30.04F
LEXINGTON      CLEAR     59  57  93 CALM      30.04S
MC COOK        CLEAR     63  52  67 SW3       30.04S
OGALLALA       PTCLDY    60  48  63 SW6       30.04S
$$

NEZ005>010-023>029-035>040-094-301100-
NORTH CENTRAL NEBRASKA

CITY           SKY/WX    TMP DP  RH WIND       PRES   REMARKS
VALENTINE      CLEAR     65  56  72 S10       29.95S
AINSWORTH      CLEAR     65  57  76 S12       29.97F
BROKEN BOW     CLEAR     60  56  86 SE3       30.02F
O`NEILL        PTCLDY    62  61  97 S7        29.99S
ORD            PTCLDY    57  57 100 SE6       30.00F FOG
THEDFORD       CLEAR     64  56  73 S10       30.01S
$$

NEZ041-046>049-061>064-073>077-083>087-301100-
SOUTH CENTRAL NEBRASKA

CITY           SKY/WX    TMP DP  RH WIND       PRES   REMARKS
GRAND ISLAND   CLOUDY    62  62 100 SW14      30.04S FOG
AURORA         CLOUDY    63  63 100 S8        30.04S FOG
HASTINGS       CLOUDY    62  61  96 S6        30.05R FOG
HEBRON         FOG       58  56  95 CALM      30.04S VSB 1/4
HOLDREGE       CLEAR     59  58  94 S3        30.05S
KEARNEY *      CLEAR     57  54  88 S6        30.04S
YORK           FOG       63  63 100 SW7       30.04S VSB 1/2
$$

NEZ011>018-030>034-042>045-301100-
NORTHEAST NEBRASKA

CITY           SKY/WX    TMP DP  RH WIND       PRES   REMARKS
NORFOLK        FOG       62  62 100 S8        30.01S VSB 1/2
ALBION         FOG       63  61  94 SW6       30.02S VSB 3/4
BLAIR          FOG       61  59  94 S7        30.03S VSB 1/4
COLUMBUS *     CLOUDY   N/A N/A N/A S5        30.03S
FREMONT        CLOUDY    63  60  92 S5        30.03S FOG
TEKAMAH        CLOUDY    63  62  97 S3        30.02S FOG
$$

NEZ050>053-065>068-078-088>093-301100-
SOUTHEAST NEBRASKA

CITY           SKY/WX    TMP DP  RH WIND       PRES   REMARKS
LINCOLN        CLOUDY    63  61  93 S6        30.04S
OMAHA EPPLEY   MOCLDY    62  60  93 SE6       30.03S FOG
BEATRICE       FOG       60  60  99 CALM      30.04S VSB 1/2
FALLS CITY     CLOUDY    57  56  96 NW3       30.02F FOG
NEBRASKA CITY  MOCLDY    58  57  99 CALM      30.04S FOG
PLATTSMOUTH    FOG       59  58  96 CALM      30.04S VSB 1/4
$$

NEZ044-045-051>053-067-301100-
OMAHA AREA

CITY           SKY/WX    TMP DP  RH WIND       PRES   REMARKS
EPPLEY FIELD   MOCLDY    62  60  93 SE6       30.03S FOG
BLAIR          FOG       61  59  94 S7        30.03S VSB 1/4
FREMONT        CLOUDY    63  60  92 S5        30.03S FOG
MILLARD        CLOUDY    62  61  96 S3        30.03S FOG
OFFUTT AFB     CLOUDY    60  60  98 S2        30.03S
PLATTSMOUTH    FOG       59  58  96 CALM      30.04S VSB 1/4
WAHOO          CLOUDY    62  60  96 S5        30.03F FOG
$$


USA.gov is the U.S. government's official web portal to all federal, state and local government web resources and services.